Regional Weather Roundup
Issued by NWS

Home | Current Version | Previous Version | Text Only | Print | Product List | Glossary On
Versions: 1 2 3 4 5 6 7 8 9 10 11 12 13 14 15 16 17 18 19 20 21 22 23 24 25 26 27 28 29 30 31 32 33 34 35 36 37 38 39 40 41 42 43 44 45 46 47 48 49 50
324
ASUS44 KLIX 211313
RWRLA
LOUISIANA WEATHER ROUNDUP
NATIONAL WEATHER SERVICE NEW ORLEANS LA
800 AM CDT MON AUG 21 2017

NOTE: "FAIR" INDICATES FEW OR NO CLOUDS BELOW 12,000 FEET WITH NO
      SIGNIFICANT WEATHER AND/OR OBSTRUCTIONS TO VISIBILITY.
      SKY/WX - SKY CONDITION AND SIGNIFICANT WEATHER.
      TMP - AIR TEMPERATURE.    DP   - DEWPOINT TEMPERATURE.
      RH  - RELATIVE HUMIDITY.  PRES - PRESSURE.
      HX  - HEAT INDEX.         WCI  - WIND CHILL INDEX.

*  THESE STATIONS ARE NOT NWS OR FAA STATIONS AND ARE NOT UNDER
   NWS QUALITY CONTROL.

LAZ040-048-061>063-065-066-069-211400-
SOUTHEAST LOUISIANA

CITY           SKY/WX    TMP DP  RH WIND       PRES   REMARKS
N.O. INTL ARPT MOSUNNY   84  77  79 NW3       30.08S
N.O. LAKEFRONT MOSUNNY   86  77  74 N5        30.09R HX  97
N.O. DOWNTOWN* FAIR      86  75  69 N3        30.10R HX  95
RESERVE*       FAIR      82  76  83 N5        30.09S
SLIDELL        SUNNY     77  75  93 CALM      30.09R
BATON ROUGE    SUNNY     79  75  87 CALM      30.09S
BOOTHVILLE     MOSUNNY   84  78  82 CALM      30.09R HX  95
BELLE CHASSE   NOT AVBL
BOGALUSA*      FAIR      79  74  86 CALM      30.12R
GALLIANO*      SUNNY     81  77  87 N3        30.08R
NEW ROADS*     FAIR      77  75  93 CALM      30.10R
GONZALES*      FAIR      79  75  89 MISG      30.08S
HAMMOND*       SUNNY     79  73  83 CALM      30.09S
HOUMA*         SUNNY     81  79  94 CALM      30.08R
PORT FOURCHON* SUNNY     86  75  70 N3        30.07R HX  95

$$

LAZ041-044-053-054-211400-
SOUTHWEST LOUISIANA

CITY           SKY/WX    TMP DP  RH WIND       PRES   REMARKS
LAKE CHARLES   SUNNY     81  77  88 NE6       30.07R
LAFAYETTE      SUNNY     78  75  90 NE6       30.09R
PATTERSON      SUNNY     80  78  94 NE7       30.09R
SALT POINT       N/A     80  78  94 VRB3      30.06R
NEW IBERIA     SUNNY     80  75  84 NE5       30.09R
CHENAULT AIRPK SUNNY     79  75  89 CALM      30.08R

$$

LAZ027-028-211400-
CENTRAL LOUISIANA

CITY           SKY/WX    TMP DP  RH WIND       PRES   REMARKS
FORT POLK      SUNNY     76  75  94 CALM      30.09R
ALEXANDRIA INT SUNNY     73  73 100 CALM      30.08S FOG
ALEXANDRIA     SUNNY     76  76 100 CALM      30.09F

$$

LAZ001-002-211400-
NORTHWEST LOUISIANA

CITY           SKY/WX    TMP DP  RH WIND       PRES   REMARKS
SHREVEPORT     SUNNY     78  77  96 SE3       30.09S
BARKSDALE AFB  SUNNY     75  75 100 SE3       30.09S
DTN SHREVEPORT SUNNY     79  76  90 SE6       30.09S

$$

LAZ014-016-211400-
NORTHEAST LOUISIANA

CITY           SKY/WX    TMP DP  RH WIND       PRES   REMARKS
MONROE         SUNNY     79  76  90 CALM      30.11R
TALLULAH       SUNNY     79  77  94 CALM      30.11R

$$





USA.gov is the U.S. government's official web portal to all federal, state and local government web resources and services.